Regional Weather Roundup
Issued by NWS

Home | Current Version | Previous Version | Graphics & Text | Print | Product List | Glossary On
Versions: 1 2 3 4 5 6 7 8 9 10 11 12 13 14 15 16 17 18 19 20 21 22 23 24 25 26 27 28 29 30 31 32 33 34 35 36 37 38 39 40 41 42 43 44 45 46 47 48 49 50
000
ASUS43 KDMX 291808
RWRIA

WEATHER ROUNDUP FOR IOWA
NATIONAL WEATHER SERVICE DES MOINES IA
100 PM CDT SUN MAY 29 2016

NOTE: "FAIR" INDICATES FEW OR NO CLOUDS BELOW 12,000 FEET WITH NO
SIGNIFICANT WEATHER AND/OR OBSTRUCTIONS TO VISIBILITY.

* - THESE STATIONS ARE NOT NWS STATIONS...THUS NOT UNDER NWS
QUALITY CONTROL.  THEY ALSO DO NOT REPORT WEATHER SUCH
AS PRECIPITATION OR FOG.

IAZ001>003-012>014-020>022-031>034-043>046-291900-
   NORTHWEST IOWA

CITY           SKY/WX    TMP DP  RH WIND       PRES   REMARKS
CARROLL *      SUNNY     79  55  44 W12G17    30.08S
CHEROKEE *     SUNNY     75  61  60 W13G18    30.07S
DENISON *      SUNNY     77  55  47 W9        30.06F
LE MARS *      MOSUNNY   77  61  57 W10       30.07S
ORANGE CITY *  SUNNY     75  63  64 W12       30.06F
SHELDON *      MOSUNNY   75  63  64 W13       30.05S
SIOUX CITY     SUNNY     79  59  50 W16G22    30.07S HX  80
6HR MIN TEMP:  57; 6HR MAX TEMP:  79;

SPENCER        MOSUNNY   76  60  57 W17       30.05F
6HR MIN TEMP:  59; 6HR MAX TEMP:  76;

STORM LAKE *   SUNNY     75  55  50 W15       30.08S
$$

IAZ055>058-069>071-079>083-090>094-291900-
   SOUTHWEST IOWA

CITY           SKY/WX    TMP DP  RH WIND       PRES   REMARKS
ATLANTIC *     SUNNY     77  55  47 SW5       30.09S
AUDUBON *      SUNNY     77  57  50 W5        30.10S
CLARINDA *       N/A     79  63  57 MISG      30.10F HX  80
COUNCIL BLFS * SUNNY     77  59  53 S7        30.09S
CRESTON *      SUNNY     77  57  50 VRB6      30.11F
HARLAN  *      SUNNY     77  55  47 SW8       30.12F
LAMONI         SUNNY     77  64  64 SW8       30.10F
6HR MIN TEMP:  59; 6HR MAX TEMP:  77;

RED OAK *      MOSUNNY   77  64  65 VRB3      30.09F
SHENANDOAH *   SUNNY     79  63  57 W5        30.09F HX  80
$$

IAZ047>049-059>061-072>074-084-291900-
   CENTRAL IOWA

CITY           SKY/WX    TMP DP  RH WIND       PRES   REMARKS
AMES           SUNNY     77  60  55 W9G23     30.07F
6HR MIN TEMP:  60; 6HR MAX TEMP:  77;

ANKENY *       SUNNY     77  59  53 VRB5G13   30.08S
BOONE *        SUNNY     77  57  50 SW9       30.07F
CHARITON *     SUNNY     79  57  47 W9        30.09F HX  80
DES MOINES     MOSUNNY   79  58  48 NW9       30.08S HX  80
6HR MIN TEMP:  61; 6HR MAX TEMP:  79;

GRINNELL*      SUNNY     75  59  57 W9        30.09S
KNOXVILLE *    SUNNY     77  59  53 SW10      30.08S
MARSHALLTOWN   MOSUNNY   75  63  66 W14       30.06S
6HR MIN TEMP:  61; 6HR MAX TEMP:  75;

NEWTON *       SUNNY     75  59  57 W9G16     30.08S
PELLA *        SUNNY     77  59  53 W9        30.10R
PERRY *          N/A     77  59  53 SW5       30.08F
$$

IAZ004>006-015-016-023>025-035-036-291900-
   NORTH CENTRAL IOWA

CITY           SKY/WX    TMP DP  RH WIND       PRES   REMARKS
ALGONA *       PTSUNNY   75  61  60 W17G24    30.05S
CLARION *      MOSUNNY   77  61  57 W14G22    30.05F
ESTHERVILLE    TSTM      67  59  75 W9G35     30.04S
6HR MIN TEMP:  59; 6HR MAX TEMP:  74; 6HR PCP:  0.01;

FORT DODGE *   MOSUNNY   75  55  50 W9G20     30.07S
MASON CITY     MOSUNNY   76  62  62 W17G26    30.05R
6HR MIN TEMP:  60; 6HR MAX TEMP:  76;

FOREST CITY *  PTSUNNY   73  61  64 W13G21    30.03F
WEBSTER CITY * PTSUNNY   77  57  50 W14G21    30.05S
IOWA FALLS *     N/A     77  59  53 W13G21    30.07S
$$

IAZ007>011-017>019-026>030-037>042-050>054-066-291900-
   NORTHEAST IOWA

CITY           SKY/WX    TMP DP  RH WIND       PRES   REMARKS
CEDAR RAPIDS   PTSUNNY   76  62  62 W17       30.05S
6HR MIN TEMP:  62; 6HR MAX TEMP:  76;

CHARLES CITY * PTSUNNY   75  63  64 W15G22    30.04S
CLINTON *      PTSUNNY   76  62  62 W14G20    30.05S
DECORAH *      MOSUNNY   73  59  60 W9G20     30.00S
DUBUQUE        PTSUNNY   73  59  61 W14G25    30.04S
6HR MIN TEMP:  62; 6HR MAX TEMP:  74;

MONTICELLO *   MOSUNNY   77  61  57 W14G21    30.04S
OELWEIN *      MOSUNNY   75  59  57 W17       30.04S
WATERLOO       MOSUNNY   76  56  49 W14       30.03S
6HR MIN TEMP:  63; 6HR MAX TEMP:  77;

$$

IAZ064-065-067-068-078-291900-
   EAST CENTRAL IOWA

CITY           SKY/WX    TMP DP  RH WIND       PRES   REMARKS
DAVENPORT      MOSUNNY   77  60  55 W14G21    30.06S
6HR MIN TEMP:  64; 6HR MAX TEMP:  77;

IOWA CITY      MOSUNNY   77  59  53 W16G24    30.07S
6HR MIN TEMP:  64; 6HR MAX TEMP:  77;

MT. PLEASANT * SUNNY     79  62  55 W9        30.08S HX  80
MUSCATINE *    MOSUNNY   79  59  50 W12G21    30.06F HX  80
QUAD CITIES    MOSUNNY   79  60  52 W12G18    30.04F HX  80
6HR MIN TEMP:  67; 6HR MAX TEMP:  79;

$$

IAZ062-063-075>077-085>089-095>099-291900-
   SOUTHEAST IOWA

CITY           SKY/WX    TMP DP  RH WIND       PRES   REMARKS
BURLINGTON     SUNNY     78  59  51 NW13      30.07S
6HR MIN TEMP:  64; 6HR MAX TEMP:  78;

FAIRFIELD *      N/A    N/A N/A N/A MISG        N/A
FORT MADISON * SUNNY     79  61  53 W13       30.08F HX  80
KEOKUK *       SUNNY     79  57  47 W13G24    30.07F HX  80
OSKALOOSA *      N/A     78  56  45 W13       30.08F
OTTUMWA        SUNNY     77  60  55 W9        30.08F
6HR MIN TEMP:  61; 6HR MAX TEMP:  77;

WASHINGTON *   MOSUNNY   77 -33   1 W10G17    30.09S
$$

ABBREVIATIONS USED IN REMARKS
   TC - TEMPERATURES IN CELSIUS
  WCI - WIND CHILL INDEX
   HX - HEAT INDEX
  VSB - VISIBILITY
$$





USA.gov is the U.S. government's official web portal to all federal, state and local government web resources and services.